Regional Weather Roundup
Issued by NWS Northern Indiana

Home | Current Version | Previous Version | Graphics & Text | Print | Product List | Glossary On
Versions: 1 2 3 4 5 6 7 8 9 10 11 12 13 14 15 16 17 18 19 20 21 22 23 24 25 26 27 28 29 30 31 32 33 34 35 36 37 38 39 40 41 42 43 44 45 46 47 48 49 50
318
ASUS43 KIWX 281800
RWRIWX

KIWX WEATHER ROUNDUP
NATIONAL WEATHER SERVICE NORTHERN INDIANA
200 PM EDT WED JUN 28 2017

NOTE: "FAIR" INDICATES FEW OR NO CLOUDS BELOW 12,000 FEET WITH NO
SIGNIFICANT WEATHER AND/OR OBSTRUCTIONS TO VISIBILITY.

* THESE STATIONS ARE NOT UNDER NWS QUALITY CONTROL. THEY ALSO MAY NOT
  REPORT WEATHER SUCH AS PRECIPITATION OR FOG.

INZ001>027-281900-
NORTHERN INDIANA

CITY           SKY/WX    TMP DP  RH WIND       PRES   REMARKS
GARY*          LGT RAIN  70  55  60 S9        29.99F
MICHIGAN CITY* CLOUDY    72  54  53 S7        30.02F
KNOX*          CLOUDY    73  43  33 S13       30.03F
SOUTH BEND     CLOUDY    74  55  51 SW20      30.04S
6HR MIN TEMP:  62; 6HR MAX TEMP:  74; 6HR PCP: TRACE;

ELKHART*       CLOUDY    73  54  49 SW10G17   30.04F
GOSHEN         CLOUDY    75  51  43 S17       30.05F
6HR MIN TEMP:  61; 6HR MAX TEMP:  76;

MONTICELLO*    CLOUDY    76  56  49 S8        30.04F
6HR MIN TEMP:  59; 6HR MAX TEMP:  76;

FORT WAYNE     PTSUNNY   76  51  41 S14G23    30.10F
6HR MIN TEMP:  60; 6HR MAX TEMP:  78;

PERU/GRISSOM   PTSUNNY   76  55  48 SW12      30.06F
6HR MIN TEMP:  60; 6HR MAX TEMP:  78;


$$
INZ028>050-281900-
CENTRAL INDIANA

CITY           SKY/WX    TMP DP  RH WIND       PRES   REMARKS
LAFAYETTE      PTSUNNY   76  58  53 S13G22    30.04F
6HR MIN TEMP:  59; 6HR MAX TEMP:  76;

KOKOMO*        CLOUDY    77  54  44 S15G22    30.08F
6HR MIN TEMP:  61; 6HR MAX TEMP:  78;

MUNCIE*        MOSUNNY   78  51  38 SW12G22   30.10F
6HR MIN TEMP:  63; 6HR MAX TEMP:  79;

INDIANAPOLIS   CLOUDY    76  56  49 S14       30.08F
6HR MIN TEMP:  60; 6HR MAX TEMP:  77;


$$
MIZ043>046-050>051-056>058-064>065-071>073-077>080-281900-
SOUTHWEST LOWER MICHIGAN

CITY           SKY/WX    TMP DP  RH WIND       PRES   REMARKS
BATTLE CREEK   CLOUDY    75  51  43 SW16      30.05F
6HR MIN TEMP:  60; 6HR MAX TEMP:  77;

BENTON HARBOR  CLOUDY    74  53  48 S9G23     30.00F
6HR MIN TEMP:  62; 6HR MAX TEMP:  75; 6HR PCP: TRACE;

HOLLAND        CLOUDY    73  54  51 S17G24    29.99F
6HR MIN TEMP:  61; 6HR MAX TEMP:  75;

GRAND RAPIDS   CLOUDY    73  54  51 S14G23    30.00F
6HR MIN TEMP:  61; 6HR MAX TEMP:  74;

KALAMAZOO      CLOUDY    75  49  39 S17       30.04R
6HR MIN TEMP:  60; 6HR MAX TEMP:  76;


$$
OHZ001>008-015>018-024>025-281900-
NORTHWEST OHIO

CITY           SKY/WX    TMP DP  RH WIND       PRES   REMARKS
DEFIANCE       PTSUNNY   74  51  44 S15       30.09F
6HR MIN TEMP:  57; 6HR MAX TEMP:  74;

FINDLAY        CLOUDY    76  48  37 SW15G24   30.11F
6HR MIN TEMP:  60; 6HR MAX TEMP:  77;

TOLEDO EXPRESS CLOUDY    74  49  41 S12       30.09F
6HR MIN TEMP:  57; 6HR MAX TEMP:  75;

TOLEDO METCALF CLOUDY    76  48  37 SW18G26   30.10F
6HR MIN TEMP:  60; 6HR MAX TEMP:  78;

LIMA           MOSUNNY   74  50  42 SW14      30.12F
6HR MIN TEMP:  59; 6HR MAX TEMP:  75;


$$
AND FOR LAKE MICHIGAN COASTAL AND OPEN LAKE BUOY OBSERVATIONS

STATION/POSITION TEMP    WIND        PRES    VSBY  WAVE
                 AIR SEA DIR/SP/G                  HT/PER
                 (F)     (DEG/KT/KT) (MB)    (MI)  (FT/S)
CALUMET HARBOR    67     170/  7/ 10 1015.0F
MICHIGAN CITY     71     170/ 13/ 17   N/A
BURNS HARBOR      72     190/  9/ 16 1016.3F
SOUTH LAKE BUOY   64 61  180/ 17/ 21 1014.4          4/ 5
4 MI NW BRIDGMAN  71 67  200/ 14/ 19 1016.0F         2/ 3
MICHIGAN CITY     70 66  190/ 10/ 14   N/A           2/ 3

$$
&&




USA.gov is the U.S. government's official web portal to all federal, state and local government web resources and services.